Sulphur, LA

10:35 PM CDT on August 31, 2016 (GMT -0500)
Sulphur

Weather History for KUXL - September, 2012

Change the Weather History Date:

Wednesday, September 19, 2012

  Actual Average (KLCH) Record (KLCH)
Temperature  
Mean Temperature 73 °F 78 °F  
Max Temperature 82 °F 88 °F 97 °F (1915)
Min Temperature 60 °F 68 °F 49 °F (1981)
Degree Days  
Heating Degree Days 0 0  
Month to date heating degree days 0  
Since 1 July heating degree days 0  
Cooling Degree Days 8 13  
Month to date cooling degree days 286  
Year to date cooling degree days 2415  
Growing Degree Days 23 (Base 50)    
Moisture  
Dew Point 56 °F    
Average Humidity 59    
Maximum Humidity 94    
Minimum Humidity 34    
Precipitation  
Precipitation 0.00 in 0.16 in 2.68 in (1932)
Month to date precipitation 3.54  
Year to date precipitation 41.76  
Snow  
Snow 0.00 in 0.00 in 0.00 in ()
Month to date snowfall 0.0  
Since 1 July snowfall 0.0  
Since 1 September snowfall 0.0  
Snow Depth -    
Sea Level Pressure  
Sea Level Pressure 30.07 in    
Wind  
Wind Speed 8 mph (NE)    
Max Wind Speed 13 mph    
Max Gust Speed 21 mph    
Visibility 10 miles    
Events      
T = Trace of Precipitation, MM = Missing Value Source: NWS Daily Summary

Daily Weather History Graph

Daily Weather History Graph

Search for Another Location

Airport or City:

Trip Planner

Search our weather history database for the weather conditions in past years. The results will help you decide how hot, cold, wet, or windy it might be!

Date:

Astronomy

Sep. 19, 2012 Rise Set
Actual Time 7:00 AM CDT 7:13 PM CDT
Civil Twilight 6:36 AM CDT 7:37 PM CDT
Nautical Twilight 6:08 AM CDT 8:05 PM CDT
Astronomical Twilight 5:40 AM CDT 8:33 PM CDT
Moon 10:49 AM CDT (9/19) 9:46 PM CDT (9/19)
Length of Visible Light 13h 00m
Length of Day
12h 12m
Waxing Crescent, 17% of the Moon is Illuminated
Sep 19
Waxing Crescent
Sep 22
First Quarter
Sep 29
Full
Oct 8
Last Quarter
Oct 15
New

Hourly Weather History & Observations

Time (CDT) Temp. Heat Index Dew Point Humidity Pressure Visibility Wind Dir Wind Speed Gust Speed Precip Events Conditions
12:15 AM 73.4 °F - 68.0 °F 83% 30.02 in 10.0 mi NE 8.1 mph - N/A   Clear
12:35 AM 73.4 °F - 68.0 °F 83% 30.03 in 10.0 mi NE 8.1 mph - N/A   Clear
12:55 AM 73.4 °F - 68.0 °F 83% 30.04 in 10.0 mi NE 11.5 mph 20.7 mph N/A   Clear
1:15 AM 71.6 °F - 68.0 °F 88% 30.04 in 10.0 mi NE 11.5 mph - N/A   Clear
1:35 AM 71.6 °F - 68.0 °F 88% 30.04 in 10.0 mi NE 9.2 mph - N/A   Clear
1:55 AM 71.6 °F - 68.0 °F 88% 30.04 in 10.0 mi NE 8.1 mph 16.1 mph N/A   Clear
2:15 AM 71.6 °F - 66.2 °F 83% 30.05 in 10.0 mi NE 10.4 mph 16.1 mph N/A   Mostly Cloudy
2:35 AM 71.6 °F - 64.4 °F 78% 30.05 in 10.0 mi NE 11.5 mph 17.3 mph N/A   Overcast
2:55 AM 71.6 °F - 64.4 °F 78% 30.05 in 10.0 mi NE 10.4 mph 17.3 mph N/A   Mostly Cloudy
3:15 AM 69.8 °F - 64.4 °F 83% 30.05 in 10.0 mi ENE 5.8 mph - N/A   Scattered Clouds
3:35 AM 69.8 °F - 62.6 °F 78% 30.05 in 10.0 mi NE 8.1 mph - N/A   Scattered Clouds
3:55 AM 69.8 °F - 62.6 °F 78% 30.05 in 10.0 mi NE 9.2 mph 16.1 mph N/A   Clear
4:15 AM 69.8 °F - 60.8 °F 73% 30.05 in 10.0 mi NE 10.4 mph 16.1 mph N/A   Clear
4:55 AM 68.0 °F - 57.2 °F 68% 30.05 in 10.0 mi NNE 6.9 mph 16.1 mph N/A   Clear
5:15 AM 68.0 °F - 57.2 °F 68% 30.05 in 10.0 mi NE 9.2 mph - N/A   Clear
5:35 AM 68.0 °F - 55.4 °F 64% 30.06 in 10.0 mi NE 6.9 mph - N/A   Clear
5:55 AM 68.0 °F - 55.4 °F 64% 30.07 in 10.0 mi NE 12.7 mph 16.1 mph N/A   Scattered Clouds
6:15 AM 68.0 °F - 57.2 °F 68% 30.07 in 10.0 mi NNE 5.8 mph - N/A   Scattered Clouds
6:35 AM 68.0 °F - 55.4 °F 64% 30.08 in 10.0 mi NNE 9.2 mph - N/A   Scattered Clouds
6:55 AM 68.0 °F - 55.4 °F 64% 30.08 in 10.0 mi NE 5.8 mph - N/A   Scattered Clouds
7:15 AM 68.0 °F - 55.4 °F 64% 30.09 in 10.0 mi NNE 3.5 mph - N/A   Mostly Cloudy
7:35 AM 68.0 °F - 55.4 °F 64% 30.09 in 10.0 mi NNE 8.1 mph - N/A   Overcast
7:55 AM 68.0 °F - 55.4 °F 64% 30.09 in 10.0 mi NNE 5.8 mph - N/A   Mostly Cloudy
8:15 AM 68.0 °F - 55.4 °F 64% 30.09 in 10.0 mi North 5.8 mph - N/A   Clear
8:35 AM 69.8 °F - 55.4 °F 60% 30.10 in 10.0 mi NE 9.2 mph - N/A   Clear
8:55 AM 69.8 °F - 55.4 °F 60% 30.11 in 10.0 mi NNE 6.9 mph - N/A   Clear
9:15 AM 69.8 °F - 55.4 °F 60% 30.11 in 10.0 mi NNE 6.9 mph - N/A   Clear
9:55 AM 71.6 °F - 55.4 °F 57% 30.12 in 10.0 mi NE 5.8 mph - N/A   Clear
10:35 AM 73.4 °F - 53.6 °F 50% 30.13 in 10.0 mi NNE 10.4 mph - N/A   Clear
10:55 AM 75.2 °F - 53.6 °F 47% 30.13 in 10.0 mi NNE 10.4 mph - N/A   Clear
11:15 AM 75.2 °F - 53.6 °F 47% 30.13 in 10.0 mi NE 6.9 mph 17.3 mph N/A   Clear
11:35 AM 75.2 °F - 53.6 °F 47% 30.13 in 10.0 mi NE 9.2 mph - N/A   Clear
11:55 AM 77.0 °F - 53.6 °F 44% 30.13 in 10.0 mi ENE 9.2 mph - N/A   Clear
12:15 PM 77.0 °F - 53.6 °F 44% 30.12 in 10.0 mi ENE 9.2 mph - N/A   Clear
12:35 PM 77.0 °F - 51.8 °F 41% 30.12 in 10.0 mi NNE 5.8 mph - N/A   Clear
12:55 PM 78.8 °F - 51.8 °F 39% 30.11 in 10.0 mi ENE 10.4 mph - N/A   Clear
1:15 PM 78.8 °F - 53.6 °F 42% 30.11 in 10.0 mi East 6.9 mph - N/A   Clear
1:35 PM 78.8 °F - 53.6 °F 42% 30.10 in 10.0 mi NE 4.6 mph - N/A   Clear
1:55 PM 78.8 °F - 53.6 °F 42% 30.09 in 10.0 mi NE 8.1 mph - N/A   Clear
2:15 PM 80.6 °F - 50.0 °F 34% 30.09 in 10.0 mi North 3.5 mph - N/A   Clear
2:35 PM 80.6 °F - 51.8 °F 37% 30.08 in 10.0 mi NNW 6.9 mph - N/A   Clear
2:55 PM 80.6 °F - 51.8 °F 37% 30.07 in 10.0 mi NNW 8.1 mph - N/A   Clear
3:15 PM 80.6 °F - 51.8 °F 37% 30.06 in 10.0 mi NNW 9.2 mph - N/A   Clear
3:35 PM 80.6 °F - 51.8 °F 37% 30.06 in 10.0 mi NW 10.4 mph - N/A   Clear
3:55 PM 80.6 °F - 51.8 °F 37% 30.06 in 10.0 mi Calm Calm - N/A   Clear
4:15 PM 82.4 °F 81.4 °F 53.6 °F 37% 30.05 in 10.0 mi NW 8.1 mph - N/A   Clear
4:35 PM 80.6 °F - 50.0 °F 34% 30.05 in 5.0 mi North 5.8 mph - N/A   Haze
4:55 PM 80.6 °F - 51.8 °F 37% 30.04 in 10.0 mi North 8.1 mph - N/A   Clear
5:15 PM 80.6 °F - 51.8 °F 37% 30.05 in 7.0 mi North 6.9 mph - N/A   Clear
5:35 PM 80.6 °F - 51.8 °F 37% 30.05 in 10.0 mi North 6.9 mph - N/A   Clear
5:55 PM 78.8 °F - 51.8 °F 39% 30.05 in 10.0 mi NNE 5.8 mph - N/A   Clear
6:15 PM 78.8 °F - 50.0 °F 36% 30.04 in 10.0 mi NNE 4.6 mph - N/A   Clear
6:35 PM 77.0 °F - 51.8 °F 41% 30.05 in 10.0 mi NNE 3.5 mph - N/A   Clear
6:55 PM 75.2 °F - 53.6 °F 47% 30.05 in 10.0 mi Calm Calm - N/A   Clear
7:15 PM 73.4 °F - 53.6 °F 50% 30.05 in 10.0 mi Calm Calm - N/A   Clear
7:35 PM 69.8 °F - 55.4 °F 60% 30.05 in 10.0 mi NE 3.5 mph - N/A   Clear
8:15 PM 66.2 °F - 57.2 °F 73% 30.06 in 10.0 mi NE 3.5 mph - N/A   Clear
8:35 PM 68.0 °F - 55.4 °F 64% 30.07 in 10.0 mi ENE 3.5 mph - N/A   Clear
8:55 PM 68.0 °F - 55.4 °F 64% 30.07 in 10.0 mi ENE 4.6 mph - N/A   Clear
9:15 PM 68.0 °F - 55.4 °F 64% 30.08 in 10.0 mi ENE 4.6 mph - N/A   Clear
9:35 PM 68.0 °F - 55.4 °F 64% 30.09 in 10.0 mi ENE 3.5 mph - N/A   Clear
9:55 PM 68.0 °F - 55.4 °F 64% 30.09 in 10.0 mi Calm Calm - N/A   Clear
10:15 PM 66.2 °F - 55.4 °F 68% 30.09 in 10.0 mi Calm Calm - N/A   Clear
10:35 PM 66.2 °F - 55.4 °F 68% 30.09 in 10.0 mi East 3.5 mph - N/A   Clear
10:55 PM 64.4 °F - 55.4 °F 73% 30.09 in 10.0 mi Calm Calm - N/A   Clear
11:35 PM 64.4 °F - 57.2 °F 77% 30.10 in 10.0 mi Calm Calm - N/A   Clear
11:55 PM 60.8 °F - 59.0 °F 94% 30.09 in 10.0 mi Calm Calm - N/A   Clear